Location: Maiden
(35.5760°N, 81.2120°W)
Time: 02:24:08
(UTC-04:00)

A-11 Canister half - Pass Details

Date: 04 August 2020
Orbit: 1527 x 1682 km, 47.3° (Epoch: 25 September)

Event Time Altitude Azimuth Distance (km) Brightness Sun altitude
Rises 21:07:57 0° 304° (WNW) 4,896 14.0 -8.7°
Reaches altitude 10° 21:11:08 10° 303° (WNW) 3,890 12.8 -9.2°
Maximum altitude 21:21:02 78° 219° (SW) 1,637 9.2 -11.0°
Enters shadow 21:29:36 14° 135° (SE) 3,446 10.2 -12.5°
Drops below altitude 10° 21:30:35 10° 135° (SE) 3,754 - -12.7°
Sets 21:33:36 0° 134° (SE) 4,719 - -13.2°
